Terminal Aerodrome Forecast
Issued by NWS Charleston, WV

Current Version | Previous Version | Text Only | Print | Product List | Glossary Off
Versions: 1 2 3 4 5 6 7 8 9 10 11 12 13 14 15 16 17 18 19 20 21

000
FTUS41 KRLX 290243 AAA
TAFCRW
TAF AMD
KCRW 290243Z 2903/2924 VRB03KT 6SM HZ BKN035
     FM290800 VRB03KT 5SM BR BKN020
     FM291600 27005KT P6SM BKN035
     FM292000 30006KT P6SM BKN200=

USA.gov is the U.S. government's official web portal to all federal, state and local government web resources and services.